Location: Unnamed
(51.5169°N, 0.1311°W)
Time: 15:46:54
(UTC+01:00)

Vanguard 1 - Pass Details

Date: 16 August 2024
Orbit: 649 x 3825 km, 34.2° (Epoch: 18 September)

Event Time Altitude Azimuth Distance (km) Brightness Sun altitude
Rises 20:51:58 0° 192° (SSW) 3,584 12.8 -5.3°
Reaches altitude 10° 20:56:08 10° 162° (SSE) 3,094 12.2 -5.8°
Maximum altitude 20:59:06 13° 139° (SE) 3,249 12.1 -6.2°
Drops below altitude 10° 21:02:40 10° 117° (ESE) 3,879 12.4 -6.7°
Enters shadow 21:06:09 - 103° (ESE) 4,744 13.0 -7.2°
